367P/Catalina (2018)

Japanese version
Home page
Updated on May 21, 2018

---------------------------------------------------------------------

* Profile

Designation 367P/2018 H1
Recovery Date April 17, 2018
Magnitude 21.0 mag
Recoverer E. Schwab (Egelsbach, Germany)

* Pictures

* Orbital Elements

Epoch 2018 June 11.0 TT = JDT 2458280.5
T 2018 June 22.32531 TT                                 MPCW
q   2.5217202            (2000.0)            P               Q
n   0.14991496     Peri.  173.11469     -0.61679263     +0.77700711
a   3.5094527      Node    58.72174     -0.72901160     -0.50363844
e   0.2814492      Incl.    8.46465     -0.29683150     -0.37763511
P   6.57
From 121 observations 2011 Feb. 10-2018 Apr. 18, mean residual 0".6.

* Magnitudes Graph

        H = 15.0  G = 0.15

---------------------------------------------------------------------

The orbital elements are published on M.P.E.C. 2018-H30.
The magnitudes graphs are made with Comet for Windows.

---------------------------------------------------------------------

Copyright(C) Seiichi Yoshida (comet@aerith.net). All rights reserved.